Flag for Switzerland Weather past 2 weeks in Altdorf, Uri, Switzerland

Now
62 °F

Mild.


Feels Like: 62 °F
Forecast: 62 / 79 °F
Wind: 1 mph from Southeast

Location: Altdorf

Current Time: Aug 1, 2014 at 2:21:25 AM

Latest Report: Aug 1, 2014 at 1:00 AM


Visibility: N/A

Pressure: 29.92 "Hg

Humidity: 92%

Dew point: 60 °F

Location of AltdorfLocation

Historic Weather in Altdorf — Graph

°F

Altdorf temperature yesterday

Maximum temperature yesterday: 75 °F (at 4:00 PM)
Minimum temperature yesterday: 63 °F (at 6:00 AM)
Average temperature yesterday: 67 °F

Past Weeks' High & Low Weather Summary

 TemperatureHumidityPressure
High85 °F (Jul 20, 2:00 AM)96% (Jul 22, 4:00 AM)30.19 "Hg (Jul 22, 4:00 AM)
Low56 °F (Jul 25, 6:00 AM)31% (Jul 19, 8:00 PM)29.73 "Hg (Jul 28, 6:00 PM)
Average67 °F79%29.93 "Hg
* Reported Jul 17 1:00 AM — Aug 1 1:00 AM, Altdorf, Weather by CustomWeather, © 2014

Note: Actual official high and low records may vary slightly from our data, if they occured in-between our weather recording intervals... More about our weather records

Advertising

Altdorf weather history for previous 24 hours

 ConditionsComfort  
Time TempWeatherWind HumidityBarometerVisibility
1:00 AM
Aug 1
62 °FMild.1 mph92%29.92 "HgN/A
12:00 AM65 °FMild.2 mph83%29.91 "HgN/A
11:00 PM
Jul 31
65 °FPassing clouds.2 mph86%29.91 "Hg11 mi
10:00 PM65 °FMild.3 mph86%29.91 "HgN/A
9:00 PM68 °FMild.2 mph78%29.89 "HgN/A
8:00 PM69 °FScattered clouds.1 mph86%29.88 "Hg14 mi
7:00 PM72 °FMild.2 mph66%29.87 "HgN/A
6:00 PM73 °FMild.3 mph64%29.87 "HgN/A
5:00 PM74 °FScattered clouds.9 mph69%29.87 "Hg11 mi
4:00 PM75 °FMild.12 mph65%29.88 "HgN/A
3:00 PM75 °FMild.7 mph65%29.89 "HgN/A
2:00 PM72 °FScattered clouds.7 mph67%29.92 "Hg14 mi
1:00 PM72 °FMild.5 mph75%29.93 "HgN/A
12:00 PM71 °FMild.5 mph78%29.94 "HgN/A
11:00 AM66 °FPartly sunny.1 mph84%29.97 "Hg12 mi
10:00 AM66 °FMild.2 mph84%29.97 "HgN/A
9:00 AM65 °FMild.No wind88%29.98 "HgN/A
8:00 AM64 °FOvercast.1 mph93%29.97 "Hg9 mi
7:00 AM64 °FMild.7 mph89%29.96 "HgN/A
6:00 AM63 °FMild.5 mph93%29.96 "HgN/A
5:00 AM64 °FOvercast.7 mph89%29.95 "Hg6 mi
4:00 AM64 °FMild.10 mph92%29.95 "HgN/A
3:00 AM64 °FMild.13 mph92%29.94 "HgN/A
2:00 AM64 °FHeavy rain. Overcast.9 mph93%29.94 "Hg5 mi
Weather by CustomWeather, © 2014

See weather overviewHow to use our weather pages